Year,Month,Day,Hour,Minute,Value (Times are PST for temperature in C)
2015,10,20,00,00,8.90
2015,10,20,00,01,8.90
2015,10,20,00,02,8.90
2015,10,20,00,03,8.90
2015,10,20,00,04,8.90
2015,10,20,00,05,8.90
2015,10,20,00,06,8.90
2015,10,20,00,07,8.90
2015,10,20,00,08,8.90
2015,10,20,00,09,8.90
2015,10,20,00,10,8.80
2015,10,20,00,11,8.80
2015,10,20,00,12,8.80
2015,10,20,00,13,8.80
2015,10,20,00,14,8.80
2015,10,20,00,15,8.80
2015,10,20,00,16,8.80
2015,10,20,00,17,8.80
2015,10,20,00,18,8.80
2015,10,20,00,19,8.80
2015,10,20,00,20,8.80
2015,10,20,00,21,8.80
2015,10,20,00,22,8.80
2015,10,20,00,23,8.80
2015,10,20,00,24,8.70
2015,10,20,00,25,8.70
2015,10,20,00,26,8.70
2015,10,20,00,27,8.70
2015,10,20,00,28,8.70
2015,10,20,00,29,8.60
2015,10,20,00,30,8.60
2015,10,20,00,31,8.60
2015,10,20,00,32,8.60
2015,10,20,00,33,8.70
2015,10,20,00,34,8.80
2015,10,20,00,35,8.80
2015,10,20,00,36,8.80
2015,10,20,00,37,8.80
2015,10,20,00,38,8.80
2015,10,20,00,39,8.80
2015,10,20,00,40,8.80
2015,10,20,00,41,8.80
2015,10,20,00,42,8.80
2015,10,20,00,43,8.70
2015,10,20,00,44,8.70
2015,10,20,00,45,8.70
2015,10,20,00,46,8.70
2015,10,20,00,47,8.70
2015,10,20,00,48,8.70
2015,10,20,00,49,8.70
2015,10,20,00,50,8.60
2015,10,20,00,51,8.60
2015,10,20,00,52,8.70
2015,10,20,00,53,8.70
2015,10,20,00,54,8.70
2015,10,20,00,55,8.60
2015,10,20,00,56,8.60
2015,10,20,00,57,8.60
2015,10,20,00,58,8.60
2015,10,20,00,59,8.60
2015,10,20,01,00,8.60
2015,10,20,01,01,8.60
2015,10,20,01,02,8.50
2015,10,20,01,03,8.50
2015,10,20,01,04,8.50
2015,10,20,01,05,8.50
2015,10,20,01,06,8.40
2015,10,20,01,07,8.40
2015,10,20,01,08,8.40
2015,10,20,01,09,8.40
2015,10,20,01,10,8.40
2015,10,20,01,11,8.30
2015,10,20,01,12,8.30
2015,10,20,01,13,8.30
2015,10,20,01,14,8.40
2015,10,20,01,15,8.40
2015,10,20,01,16,8.40
2015,10,20,01,17,8.40
2015,10,20,01,18,8.30
2015,10,20,01,19,8.30
2015,10,20,01,20,8.30
2015,10,20,01,21,8.30
2015,10,20,01,22,8.30
2015,10,20,01,23,8.30
2015,10,20,01,24,8.30
2015,10,20,01,25,8.30
2015,10,20,01,26,8.30
2015,10,20,01,27,8.30
2015,10,20,01,28,8.30
2015,10,20,01,29,8.30
2015,10,20,01,30,8.30
2015,10,20,01,31,8.30
2015,10,20,01,32,8.30
2015,10,20,01,33,8.30
2015,10,20,01,34,8.30
2015,10,20,01,35,8.30
2015,10,20,01,36,8.30
2015,10,20,01,37,8.30
2015,10,20,01,38,8.30
2015,10,20,01,39,8.30
2015,10,20,01,40,8.30
2015,10,20,01,41,8.30
2015,10,20,01,42,8.30
2015,10,20,01,43,8.30
2015,10,20,01,44,8.30
2015,10,20,01,45,8.30
2015,10,20,01,46,8.30
2015,10,20,01,47,8.30
2015,10,20,01,48,8.20
2015,10,20,01,49,8.20
2015,10,20,01,50,8.20
2015,10,20,01,51,8.20
2015,10,20,01,52,8.20
2015,10,20,01,53,8.20
2015,10,20,01,54,8.20
2015,10,20,01,55,8.20
2015,10,20,01,56,8.20
2015,10,20,01,57,8.20
2015,10,20,01,58,8.20
2015,10,20,01,59,8.20
2015,10,20,02,00,8.10
2015,10,20,02,01,8.10
2015,10,20,02,02,8.10
2015,10,20,02,03,8.10
2015,10,20,02,04,8.10
2015,10,20,02,05,8.20
2015,10,20,02,06,8.20
2015,10,20,02,07,8.20
2015,10,20,02,08,8.20
2015,10,20,02,09,8.10
2015,10,20,02,10,8.10
2015,10,20,02,11,8.10
2015,10,20,02,12,8.10
2015,10,20,02,13,8.10
2015,10,20,02,14,8.10
2015,10,20,02,15,8.10
2015,10,20,02,16,8.10
2015,10,20,02,17,8.00
2015,10,20,02,18,8.00
2015,10,20,02,19,8.00
2015,10,20,02,20,8.00
2015,10,20,02,21,8.00
2015,10,20,02,22,8.00
2015,10,20,02,23,8.00
2015,10,20,02,24,8.00
2015,10,20,02,25,8.00
2015,10,20,02,26,8.00
2015,10,20,02,27,8.00
2015,10,20,02,28,8.00
2015,10,20,02,29,8.00
2015,10,20,02,30,8.00
2015,10,20,02,31,7.90
2015,10,20,02,32,7.90
2015,10,20,02,33,7.90
2015,10,20,02,34,7.90
2015,10,20,02,35,7.90
2015,10,20,02,36,7.90
2015,10,20,02,37,7.90
2015,10,20,02,38,7.90
2015,10,20,02,39,7.90
2015,10,20,02,40,7.90
2015,10,20,02,41,7.90
2015,10,20,02,42,7.90
2015,10,20,02,43,7.80
2015,10,20,02,44,7.80
2015,10,20,02,45,7.80
2015,10,20,02,46,7.80
2015,10,20,02,47,7.80
2015,10,20,02,48,7.80
2015,10,20,02,49,7.80
2015,10,20,02,50,7.80
2015,10,20,02,51,7.80
2015,10,20,02,52,7.80
2015,10,20,02,53,7.80
2015,10,20,02,54,7.80
2015,10,20,02,55,7.80
2015,10,20,02,56,7.80
2015,10,20,02,57,7.90
2015,10,20,02,58,7.90
2015,10,20,02,59,7.90
2015,10,20,03,00,7.90
2015,10,20,03,01,7.90
2015,10,20,03,02,7.90
2015,10,20,03,03,7.90
2015,10,20,03,04,7.90
2015,10,20,03,05,7.90
2015,10,20,03,06,7.90
2015,10,20,03,07,7.80
2015,10,20,03,08,7.80
2015,10,20,03,09,7.80
2015,10,20,03,10,7.80
2015,10,20,03,11,7.80
2015,10,20,03,12,7.80
2015,10,20,03,13,7.80
2015,10,20,03,14,7.80
2015,10,20,03,15,7.80
2015,10,20,03,16,7.80
2015,10,20,03,17,7.80
2015,10,20,03,18,7.80
2015,10,20,03,19,7.80
2015,10,20,03,20,7.80
2015,10,20,03,21,7.80
2015,10,20,03,22,7.80
2015,10,20,03,23,7.80
2015,10,20,03,24,7.80
2015,10,20,03,25,7.70
2015,10,20,03,26,7.70
2015,10,20,03,27,7.70
2015,10,20,03,28,7.70
2015,10,20,03,29,7.70
2015,10,20,03,30,7.70
2015,10,20,03,31,7.70
2015,10,20,03,32,7.70
2015,10,20,03,33,7.70
2015,10,20,03,34,7.70
2015,10,20,03,35,7.70
2015,10,20,03,36,7.70
2015,10,20,03,37,7.70
2015,10,20,03,38,7.70
2015,10,20,03,39,7.70
2015,10,20,03,40,7.70
2015,10,20,03,41,7.70
2015,10,20,03,42,7.60
2015,10,20,03,43,7.60
2015,10,20,03,44,7.70
2015,10,20,03,45,7.60
2015,10,20,03,46,7.60
2015,10,20,03,47,7.60
2015,10,20,03,48,7.60
2015,10,20,03,49,7.60
2015,10,20,03,50,7.60
2015,10,20,03,51,7.60
2015,10,20,03,52,7.50
2015,10,20,03,53,7.50
2015,10,20,03,54,7.50
2015,10,20,03,55,7.50
2015,10,20,03,56,7.50
2015,10,20,03,57,7.50
2015,10,20,03,58,7.50
2015,10,20,03,59,7.50
2015,10,20,04,00,7.50
2015,10,20,04,01,7.50
2015,10,20,04,02,7.50
2015,10,20,04,03,7.40
2015,10,20,04,04,7.40
2015,10,20,04,05,7.40
2015,10,20,04,06,7.40
2015,10,20,04,07,7.40
2015,10,20,04,08,7.40
2015,10,20,04,09,7.40
2015,10,20,04,10,7.40
2015,10,20,04,11,7.30
2015,10,20,04,12,7.30
2015,10,20,04,13,7.30
2015,10,20,04,14,7.30
2015,10,20,04,15,7.30
2015,10,20,04,16,7.30
2015,10,20,04,17,7.30
2015,10,20,04,18,7.40
2015,10,20,04,19,7.40
2015,10,20,04,20,7.30
2015,10,20,04,21,7.30
2015,10,20,04,22,7.30
2015,10,20,04,23,7.30
2015,10,20,04,24,7.30
2015,10,20,04,25,7.40
2015,10,20,04,26,7.40
2015,10,20,04,27,7.40
2015,10,20,04,28,7.40
2015,10,20,04,29,7.30
2015,10,20,04,30,7.30
2015,10,20,04,31,7.30
2015,10,20,04,32,7.30
2015,10,20,04,33,7.30
2015,10,20,04,34,7.30
2015,10,20,04,35,7.30
2015,10,20,04,36,7.30
2015,10,20,04,37,7.30
2015,10,20,04,38,7.30
2015,10,20,04,39,7.30
2015,10,20,04,40,7.30
2015,10,20,04,41,7.30
2015,10,20,04,42,7.30
2015,10,20,04,43,7.30
2015,10,20,04,44,7.30
2015,10,20,04,45,7.30
2015,10,20,04,46,7.30
2015,10,20,04,47,7.30
2015,10,20,04,48,7.30
2015,10,20,04,49,7.30
2015,10,20,04,50,7.30
2015,10,20,04,51,7.30
2015,10,20,04,52,7.30
2015,10,20,04,53,7.20
2015,10,20,04,54,7.20
2015,10,20,04,55,7.20
2015,10,20,04,56,7.20
2015,10,20,04,57,7.30
2015,10,20,04,58,7.30
2015,10,20,04,59,7.30
2015,10,20,05,00,7.30
2015,10,20,05,01,7.30
2015,10,20,05,02,7.30
2015,10,20,05,03,7.30
2015,10,20,05,04,7.30
2015,10,20,05,05,7.30
2015,10,20,05,06,7.20
2015,10,20,05,07,7.20
2015,10,20,05,08,7.20
2015,10,20,05,09,7.20
2015,10,20,05,10,7.20
2015,10,20,05,11,7.20
2015,10,20,05,12,7.20
2015,10,20,05,13,7.20
2015,10,20,05,14,7.20
2015,10,20,05,15,7.20
2015,10,20,05,16,7.20
2015,10,20,05,17,7.20
2015,10,20,05,18,7.20
2015,10,20,05,19,7.20
2015,10,20,05,20,7.20
2015,10,20,05,21,7.20
2015,10,20,05,22,7.30
2015,10,20,05,23,7.30
2015,10,20,05,24,7.20
2015,10,20,05,25,7.20
2015,10,20,05,26,7.20
2015,10,20,05,27,7.20
2015,10,20,05,28,7.20
2015,10,20,05,29,7.10
2015,10,20,05,30,7.10
2015,10,20,05,31,7.10
2015,10,20,05,32,7.10
2015,10,20,05,33,7.10
2015,10,20,05,34,7.10
2015,10,20,05,35,7.10
2015,10,20,05,36,7.10
2015,10,20,05,37,7.10
2015,10,20,05,38,7.10
2015,10,20,05,39,7.10
2015,10,20,05,40,7.10
2015,10,20,05,41,7.10
2015,10,20,05,42,7.10
2015,10,20,05,43,7.20
2015,10,20,05,44,7.20
2015,10,20,05,45,7.20
2015,10,20,05,46,7.20
2015,10,20,05,47,7.20
2015,10,20,05,48,7.20
2015,10,20,05,49,7.20
2015,10,20,05,50,7.20
2015,10,20,05,51,7.20
2015,10,20,05,52,7.20
2015,10,20,05,53,7.20
2015,10,20,05,54,7.20
2015,10,20,05,55,7.20
2015,10,20,05,56,7.20
2015,10,20,05,57,7.20
2015,10,20,05,58,7.10
2015,10,20,05,59,7.10
2015,10,20,06,00,7.10
2015,10,20,06,01,7.10
2015,10,20,06,02,7.00
2015,10,20,06,03,7.00
2015,10,20,06,04,6.90
2015,10,20,06,05,6.90
2015,10,20,06,06,6.90
2015,10,20,06,07,7.00
2015,10,20,06,08,7.00
2015,10,20,06,09,7.00
2015,10,20,06,10,7.10
2015,10,20,06,11,7.10
2015,10,20,06,12,7.00
2015,10,20,06,13,7.00
2015,10,20,06,14,7.00
2015,10,20,06,15,7.00
2015,10,20,06,16,7.00
2015,10,20,06,17,7.00
2015,10,20,06,18,7.00
2015,10,20,06,19,7.00
2015,10,20,06,20,7.00
2015,10,20,06,21,7.00
2015,10,20,06,22,6.90
2015,10,20,06,23,6.90
2015,10,20,06,24,6.90
2015,10,20,06,25,6.90
2015,10,20,06,26,6.90
2015,10,20,06,27,6.90
2015,10,20,06,28,6.90
2015,10,20,06,29,6.90
2015,10,20,06,30,6.90
2015,10,20,06,31,6.80
2015,10,20,06,32,6.80
2015,10,20,06,33,6.80
2015,10,20,06,34,6.80
2015,10,20,06,35,6.80
2015,10,20,06,36,6.80
2015,10,20,06,37,6.80
2015,10,20,06,38,6.80
2015,10,20,06,39,6.80
2015,10,20,06,40,6.80
2015,10,20,06,41,6.80
2015,10,20,06,42,6.70
2015,10,20,06,43,6.70
2015,10,20,06,44,6.70
2015,10,20,06,45,6.80
2015,10,20,06,46,6.80
2015,10,20,06,47,6.80
2015,10,20,06,48,6.80
2015,10,20,06,49,6.80
2015,10,20,06,50,6.80
2015,10,20,06,51,6.80
2015,10,20,06,52,6.70
2015,10,20,06,53,6.70
2015,10,20,06,54,6.80
2015,10,20,06,55,6.70
2015,10,20,06,56,6.70
2015,10,20,06,57,6.70
2015,10,20,06,58,6.70
2015,10,20,06,59,6.70
2015,10,20,07,00,6.70
2015,10,20,07,01,6.70
2015,10,20,07,02,6.70
2015,10,20,07,03,6.70
2015,10,20,07,04,6.70
2015,10,20,07,05,6.60
2015,10,20,07,06,6.60
2015,10,20,07,07,6.60
2015,10,20,07,08,6.60
2015,10,20,07,09,6.60
2015,10,20,07,10,6.70
2015,10,20,07,11,6.70
2015,10,20,07,12,6.70
2015,10,20,07,13,6.70
2015,10,20,07,14,6.70
2015,10,20,07,15,6.70
2015,10,20,07,16,6.70
2015,10,20,07,17,6.70
2015,10,20,07,18,6.70
2015,10,20,07,19,6.60
2015,10,20,07,20,6.60
2015,10,20,07,21,6.60
2015,10,20,07,22,6.60
2015,10,20,07,23,6.60
2015,10,20,07,24,6.60
2015,10,20,07,25,6.60
2015,10,20,07,26,6.60
2015,10,20,07,27,6.60
2015,10,20,07,28,6.60
2015,10,20,07,29,6.60
2015,10,20,07,30,6.60
2015,10,20,07,31,6.60
2015,10,20,07,32,6.50
2015,10,20,07,33,6.50
2015,10,20,07,34,6.60
2015,10,20,07,35,6.60
2015,10,20,07,36,6.60
2015,10,20,07,37,6.60
2015,10,20,07,38,6.60
2015,10,20,07,39,6.60
2015,10,20,07,40,6.60
2015,10,20,07,41,6.60
2015,10,20,07,42,6.60
2015,10,20,07,43,6.60
2015,10,20,07,44,6.60
2015,10,20,07,45,6.60
2015,10,20,07,46,6.60
2015,10,20,07,47,6.60
2015,10,20,07,48,6.60
2015,10,20,07,49,6.60
2015,10,20,07,50,6.60
2015,10,20,07,51,6.60
2015,10,20,07,52,6.60
2015,10,20,07,53,6.60
2015,10,20,07,54,6.60
2015,10,20,07,55,6.60
2015,10,20,07,56,6.60
2015,10,20,07,57,6.70
2015,10,20,07,58,6.70
2015,10,20,07,59,6.70
2015,10,20,08,00,6.70
2015,10,20,08,01,6.70
2015,10,20,08,02,6.70
2015,10,20,08,03,6.70
2015,10,20,08,04,6.70
2015,10,20,08,05,6.70
2015,10,20,08,06,6.70
2015,10,20,08,07,6.70
2015,10,20,08,08,6.70
2015,10,20,08,09,6.70
2015,10,20,08,10,6.70
2015,10,20,08,11,6.80
2015,10,20,08,12,6.80
2015,10,20,08,13,6.80
2015,10,20,08,14,6.80
2015,10,20,08,15,6.80
2015,10,20,08,16,6.80
2015,10,20,08,17,6.90
2015,10,20,08,18,6.90
2015,10,20,08,19,6.90
2015,10,20,08,20,7.00
2015,10,20,08,21,7.00
2015,10,20,08,22,7.00
2015,10,20,08,23,7.00
2015,10,20,08,24,7.10
2015,10,20,08,25,7.10
2015,10,20,08,26,7.10
2015,10,20,08,27,7.10
2015,10,20,08,28,7.10
2015,10,20,08,29,7.20
2015,10,20,08,30,7.20
2015,10,20,08,31,7.20
2015,10,20,08,32,7.20
2015,10,20,08,33,7.20
2015,10,20,08,34,7.20
2015,10,20,08,35,7.20
2015,10,20,08,36,7.20
2015,10,20,08,37,7.30
2015,10,20,08,38,7.30
2015,10,20,08,39,7.30
2015,10,20,08,40,7.40
2015,10,20,08,41,7.40
2015,10,20,08,42,7.50
2015,10,20,08,43,7.50
2015,10,20,08,44,7.60
2015,10,20,08,45,7.60
2015,10,20,08,46,7.60
2015,10,20,08,47,7.60
2015,10,20,08,48,7.70
2015,10,20,08,49,7.70
2015,10,20,08,50,7.80
2015,10,20,08,51,7.80
2015,10,20,08,52,7.80
2015,10,20,08,53,7.80
2015,10,20,08,54,7.80
2015,10,20,08,55,7.90
2015,10,20,08,56,7.90
2015,10,20,08,57,7.90
2015,10,20,08,58,7.90
2015,10,20,08,59,7.90
2015,10,20,09,00,8.00
2015,10,20,09,01,8.00
2015,10,20,09,02,8.00
2015,10,20,09,03,8.10
2015,10,20,09,04,8.10
2015,10,20,09,05,8.10
2015,10,20,09,06,8.20
2015,10,20,09,07,8.20
2015,10,20,09,08,8.20
2015,10,20,09,09,8.20
2015,10,20,09,10,8.30
2015,10,20,09,11,8.30
2015,10,20,09,12,8.30
2015,10,20,09,13,8.30
2015,10,20,09,14,8.40
2015,10,20,09,15,8.40
2015,10,20,09,16,8.50
2015,10,20,09,17,8.60
2015,10,20,09,18,8.60
2015,10,20,09,19,8.70
2015,10,20,09,20,8.80
2015,10,20,09,21,8.90
2015,10,20,09,22,9.00
2015,10,20,09,23,9.10
2015,10,20,09,24,9.20
2015,10,20,09,25,9.20
2015,10,20,09,26,9.30
2015,10,20,09,27,9.40
2015,10,20,09,28,9.50
2015,10,20,09,29,9.60
2015,10,20,09,30,9.70
2015,10,20,09,31,9.80
2015,10,20,09,32,9.90
2015,10,20,09,33,10.00
2015,10,20,09,34,10.10
2015,10,20,09,35,10.10
2015,10,20,09,36,10.20
2015,10,20,09,37,10.30
2015,10,20,09,38,10.40
2015,10,20,09,39,10.50
2015,10,20,09,40,10.50
2015,10,20,09,41,10.40
2015,10,20,09,42,10.40
2015,10,20,09,43,10.40
2015,10,20,09,44,10.40
2015,10,20,09,45,10.40
2015,10,20,09,46,10.50
2015,10,20,09,47,10.60
2015,10,20,09,48,10.60
2015,10,20,09,49,10.70
2015,10,20,09,50,10.70
2015,10,20,09,51,10.70
2015,10,20,09,52,10.80
2015,10,20,09,53,10.80
2015,10,20,09,54,10.80
2015,10,20,09,55,10.90
2015,10,20,09,56,10.90
2015,10,20,09,57,11.00
2015,10,20,09,58,11.10
2015,10,20,09,59,11.30
2015,10,20,10,00,11.30
2015,10,20,10,01,11.40
2015,10,20,10,02,11.50
2015,10,20,10,03,11.50
2015,10,20,10,04,11.50
2015,10,20,10,05,11.50
2015,10,20,10,06,11.50
2015,10,20,10,07,11.50
2015,10,20,10,08,11.50
2015,10,20,10,09,11.60
2015,10,20,10,10,11.70
2015,10,20,10,11,11.90
2015,10,20,10,12,12.00
2015,10,20,10,13,12.10
2015,10,20,10,14,12.10
2015,10,20,10,15,12.20
2015,10,20,10,16,12.30
2015,10,20,10,17,12.30
2015,10,20,10,18,12.30
2015,10,20,10,19,12.30
2015,10,20,10,20,12.40
2015,10,20,10,21,12.40
2015,10,20,10,22,12.40
2015,10,20,10,23,12.50
2015,10,20,10,24,12.50
2015,10,20,10,25,12.60
2015,10,20,10,26,12.70
2015,10,20,10,27,12.70
2015,10,20,10,28,12.70
2015,10,20,10,29,12.80
2015,10,20,10,30,12.90
2015,10,20,10,31,13.00
2015,10,20,10,32,13.10
2015,10,20,10,33,13.20
2015,10,20,10,34,13.20
2015,10,20,10,35,13.10
2015,10,20,10,36,13.00
2015,10,20,10,37,12.90
2015,10,20,10,38,12.90
2015,10,20,10,39,12.90
2015,10,20,10,40,12.90
2015,10,20,10,41,12.90
2015,10,20,10,42,12.90
2015,10,20,10,43,12.80
2015,10,20,10,44,12.80
2015,10,20,10,45,12.90
2015,10,20,10,46,12.90
2015,10,20,10,47,12.90
2015,10,20,10,48,13.00
2015,10,20,10,49,13.00
2015,10,20,10,50,13.00
2015,10,20,10,51,13.00
2015,10,20,10,52,13.10
2015,10,20,10,53,13.10
2015,10,20,10,54,13.10
2015,10,20,10,55,13.10
2015,10,20,10,56,13.10
2015,10,20,10,57,13.10
2015,10,20,10,58,13.10
2015,10,20,10,59,13.10
2015,10,20,11,00,13.10
2015,10,20,11,01,13.00
2015,10,20,11,02,13.00
2015,10,20,11,03,13.00
2015,10,20,11,04,12.90
2015,10,20,11,05,12.90
2015,10,20,11,06,12.90
2015,10,20,11,07,12.90
2015,10,20,11,08,12.90
2015,10,20,11,09,12.90
2015,10,20,11,10,12.90
2015,10,20,11,11,12.90
2015,10,20,11,12,12.90
2015,10,20,11,13,12.90
2015,10,20,11,14,13.00
2015,10,20,11,15,13.00
2015,10,20,11,16,13.00
2015,10,20,11,17,13.10
2015,10,20,11,18,13.10
2015,10,20,11,19,13.10
2015,10,20,11,20,13.10
2015,10,20,11,21,13.10
2015,10,20,11,22,13.10
2015,10,20,11,23,13.00
2015,10,20,11,24,12.90
2015,10,20,11,25,12.90
2015,10,20,11,26,12.90
2015,10,20,11,27,12.80
2015,10,20,11,28,12.80
2015,10,20,11,29,12.80
2015,10,20,11,30,12.80
2015,10,20,11,31,12.80
2015,10,20,11,32,12.70
2015,10,20,11,33,12.70
2015,10,20,11,34,12.70
2015,10,20,11,35,12.60
2015,10,20,11,36,12.60
2015,10,20,11,37,12.60
2015,10,20,11,38,12.60
2015,10,20,11,39,12.50
2015,10,20,11,40,12.50
2015,10,20,11,41,12.50
2015,10,20,11,42,12.50
2015,10,20,11,43,12.50
2015,10,20,11,44,12.50
2015,10,20,11,45,12.60
2015,10,20,11,46,12.60
2015,10,20,11,47,12.60
2015,10,20,11,48,12.70
2015,10,20,11,49,12.70
2015,10,20,11,50,12.80
2015,10,20,11,51,12.80
2015,10,20,11,52,12.80
2015,10,20,11,53,12.90
2015,10,20,11,54,12.90
2015,10,20,11,55,12.90
2015,10,20,11,56,12.90
2015,10,20,11,57,13.00
2015,10,20,11,58,13.10
2015,10,20,11,59,13.10
2015,10,20,12,00,13.20
2015,10,20,12,01,13.20
2015,10,20,12,02,13.30
2015,10,20,12,03,13.30
2015,10,20,12,04,13.40
2015,10,20,12,05,13.40
2015,10,20,12,06,13.40
2015,10,20,12,07,13.40
2015,10,20,12,08,13.50
2015,10,20,12,09,13.50
2015,10,20,12,10,13.60
2015,10,20,12,11,13.60
2015,10,20,12,12,13.60
2015,10,20,12,13,13.60
2015,10,20,12,14,13.50
2015,10,20,12,15,13.50
2015,10,20,12,16,13.50
2015,10,20,12,17,13.60
2015,10,20,12,18,13.60
2015,10,20,12,19,13.70
2015,10,20,12,20,13.70
2015,10,20,12,21,13.70
2015,10,20,12,22,13.80
2015,10,20,12,23,13.80
2015,10,20,12,24,13.70
2015,10,20,12,25,13.70
2015,10,20,12,26,13.80
2015,10,20,12,27,13.80
2015,10,20,12,28,13.90
2015,10,20,12,29,13.90
2015,10,20,12,30,13.90
2015,10,20,12,31,14.00
2015,10,20,12,32,14.10
2015,10,20,12,33,14.20
2015,10,20,12,34,14.20
2015,10,20,12,35,14.30
2015,10,20,12,36,14.40
2015,10,20,12,37,14.40
2015,10,20,12,38,14.40
2015,10,20,12,39,14.40
2015,10,20,12,40,14.40
2015,10,20,12,41,14.40
2015,10,20,12,42,14.40
2015,10,20,12,43,14.50
2015,10,20,12,44,14.40
2015,10,20,12,45,14.40
2015,10,20,12,46,14.30
2015,10,20,12,47,14.30
2015,10,20,12,48,14.20
2015,10,20,12,49,14.10
2015,10,20,12,50,14.00
2015,10,20,12,51,13.90
2015,10,20,12,52,14.00
2015,10,20,12,53,14.00
2015,10,20,12,54,14.10
2015,10,20,12,55,14.10
2015,10,20,12,56,14.00
2015,10,20,12,57,14.00
2015,10,20,12,58,14.00
2015,10,20,12,59,14.10
2015,10,20,13,00,14.10
2015,10,20,13,01,14.10
2015,10,20,13,02,14.00
2015,10,20,13,03,14.00
2015,10,20,13,04,14.00
2015,10,20,13,05,14.00
2015,10,20,13,06,13.90
2015,10,20,13,07,13.90
2015,10,20,13,08,13.80
2015,10,20,13,09,13.80
2015,10,20,13,10,13.80
2015,10,20,13,11,13.90
2015,10,20,13,12,13.90
2015,10,20,13,13,13.90
2015,10,20,13,14,13.90
2015,10,20,13,15,13.90
2015,10,20,13,16,13.90
2015,10,20,13,17,14.00
2015,10,20,13,18,14.00
2015,10,20,13,19,14.10
2015,10,20,13,20,14.10
2015,10,20,13,21,14.10
2015,10,20,13,22,14.20
2015,10,20,13,23,14.20
2015,10,20,13,24,14.20
2015,10,20,13,25,14.20
2015,10,20,13,26,14.10
2015,10,20,13,27,14.10
2015,10,20,13,28,14.10
2015,10,20,13,29,14.10
2015,10,20,13,30,14.10
2015,10,20,13,31,14.10
2015,10,20,13,32,14.10
2015,10,20,13,33,14.10
2015,10,20,13,34,14.10
2015,10,20,13,35,14.20
2015,10,20,13,36,14.20
2015,10,20,13,37,14.20
2015,10,20,13,38,14.10
2015,10,20,13,39,14.10
2015,10,20,13,40,14.00
2015,10,20,13,41,14.00
2015,10,20,13,42,13.90
2015,10,20,13,43,13.80
2015,10,20,13,44,13.80
2015,10,20,13,45,13.80
2015,10,20,13,46,13.70
2015,10,20,13,47,13.70
2015,10,20,13,48,13.70
2015,10,20,13,49,13.70
2015,10,20,13,50,13.80
2015,10,20,13,51,13.80
2015,10,20,13,52,13.80
2015,10,20,13,53,13.90
2015,10,20,13,54,13.90
2015,10,20,13,55,13.90
2015,10,20,13,56,13.90
2015,10,20,13,57,14.00
2015,10,20,13,58,14.10
2015,10,20,13,59,14.10
2015,10,20,14,00,14.10
2015,10,20,14,01,14.10
2015,10,20,14,02,14.00
2015,10,20,14,03,13.90
2015,10,20,14,04,13.90
2015,10,20,14,05,13.80
2015,10,20,14,06,13.80
2015,10,20,14,07,13.80
2015,10,20,14,08,13.90
2015,10,20,14,09,13.90
2015,10,20,14,10,13.90
2015,10,20,14,11,14.00
2015,10,20,14,12,14.00
2015,10,20,14,13,14.10
2015,10,20,14,14,14.10
2015,10,20,14,15,14.10
2015,10,20,14,16,14.10
2015,10,20,14,17,14.10
2015,10,20,14,18,14.10
2015,10,20,14,19,14.10
2015,10,20,14,20,14.10
2015,10,20,14,21,14.10
2015,10,20,14,22,14.10
2015,10,20,14,23,14.10
2015,10,20,14,24,14.10
2015,10,20,14,25,14.10
2015,10,20,14,26,14.10
2015,10,20,14,27,14.10
2015,10,20,14,28,14.10
2015,10,20,14,29,14.10
2015,10,20,14,30,14.10
2015,10,20,14,31,14.10
2015,10,20,14,32,14.00
2015,10,20,14,33,14.00
2015,10,20,14,34,14.00
2015,10,20,14,35,14.00
2015,10,20,14,36,13.90
2015,10,20,14,37,13.90
2015,10,20,14,38,13.90
2015,10,20,14,39,13.90
2015,10,20,14,40,13.80
2015,10,20,14,41,13.80
2015,10,20,14,42,13.80
2015,10,20,14,43,13.70
2015,10,20,14,44,13.70
2015,10,20,14,45,13.70
2015,10,20,14,46,13.70
2015,10,20,14,47,13.70
2015,10,20,14,48,13.70
2015,10,20,14,49,13.70
2015,10,20,14,50,13.70
2015,10,20,14,51,13.70
2015,10,20,14,52,13.70
2015,10,20,14,53,13.70
2015,10,20,14,54,13.70
2015,10,20,14,55,13.70
2015,10,20,14,56,13.70
2015,10,20,14,57,13.70
2015,10,20,14,58,13.80
2015,10,20,14,59,13.70
2015,10,20,15,00,13.80
2015,10,20,15,01,13.80
2015,10,20,15,02,13.80
2015,10,20,15,03,13.80
2015,10,20,15,04,13.80
2015,10,20,15,05,13.80
2015,10,20,15,06,13.90
2015,10,20,15,07,13.90
2015,10,20,15,08,13.90
2015,10,20,15,09,13.90
2015,10,20,15,10,13.90
2015,10,20,15,11,13.90
2015,10,20,15,12,13.90
2015,10,20,15,13,13.90
2015,10,20,15,14,13.90
2015,10,20,15,15,13.90
2015,10,20,15,16,13.90
2015,10,20,15,17,13.90
2015,10,20,15,18,13.90
2015,10,20,15,19,13.90
2015,10,20,15,20,13.90
2015,10,20,15,21,13.90
2015,10,20,15,22,13.90
2015,10,20,15,23,13.90
2015,10,20,15,24,13.90
2015,10,20,15,25,13.90
2015,10,20,15,26,13.90
2015,10,20,15,27,13.90
2015,10,20,15,28,13.90
2015,10,20,15,29,13.80
2015,10,20,15,30,13.80
2015,10,20,15,31,13.80
2015,10,20,15,32,13.80
2015,10,20,15,33,13.80
2015,10,20,15,34,13.80
2015,10,20,15,35,13.70
2015,10,20,15,36,13.70
2015,10,20,15,37,13.70
2015,10,20,15,38,13.70
2015,10,20,15,39,13.70
2015,10,20,15,40,13.70
2015,10,20,15,41,13.70
2015,10,20,15,42,13.70
2015,10,20,15,43,13.70
2015,10,20,15,44,13.70
2015,10,20,15,45,13.80
2015,10,20,15,46,13.80
2015,10,20,15,47,13.80
2015,10,20,15,48,13.80
2015,10,20,15,49,13.80
2015,10,20,15,50,13.80
2015,10,20,15,51,13.80
2015,10,20,15,52,13.80
2015,10,20,15,53,13.80
2015,10,20,15,54,13.80
2015,10,20,15,55,13.80
2015,10,20,15,56,13.90
2015,10,20,15,57,13.90
2015,10,20,15,58,13.90
2015,10,20,15,59,13.90
2015,10,20,16,00,13.90
2015,10,20,16,01,13.90
2015,10,20,16,02,13.90
2015,10,20,16,03,13.90
2015,10,20,16,04,13.90
2015,10,20,16,05,13.90
2015,10,20,16,06,13.90
2015,10,20,16,07,13.90
2015,10,20,16,08,13.90
2015,10,20,16,09,13.90
2015,10,20,16,10,13.90
2015,10,20,16,11,13.90
2015,10,20,16,12,13.90
2015,10,20,16,13,13.90
2015,10,20,16,14,13.90
2015,10,20,16,15,13.80
2015,10,20,16,16,13.80
2015,10,20,16,17,13.80
2015,10,20,16,18,13.80
2015,10,20,16,19,13.80
2015,10,20,16,20,13.80
2015,10,20,16,21,13.70
2015,10,20,16,22,13.70
2015,10,20,16,23,13.70
2015,10,20,16,24,13.70
2015,10,20,16,25,13.70
2015,10,20,16,26,13.70
2015,10,20,16,27,13.70
2015,10,20,16,28,13.70
2015,10,20,16,29,13.80
2015,10,20,16,30,13.80
2015,10,20,16,31,13.80
2015,10,20,16,32,13.80
2015,10,20,16,33,13.70
2015,10,20,16,34,13.70
2015,10,20,16,35,13.70
2015,10,20,16,36,13.70
2015,10,20,16,37,13.60
2015,10,20,16,38,13.60
2015,10,20,16,39,13.60
2015,10,20,16,40,13.50
2015,10,20,16,41,13.50
2015,10,20,16,42,13.50
2015,10,20,16,43,13.50
2015,10,20,16,44,13.40
2015,10,20,16,45,13.40
2015,10,20,16,46,13.40
2015,10,20,16,47,13.40
2015,10,20,16,48,13.40
2015,10,20,16,49,13.40
2015,10,20,16,50,13.40
2015,10,20,16,51,13.40
2015,10,20,16,52,13.40
2015,10,20,16,53,13.40
2015,10,20,16,54,13.40
2015,10,20,16,55,13.40
2015,10,20,16,56,13.40
2015,10,20,16,57,13.50
2015,10,20,16,58,13.50
2015,10,20,16,59,13.50
2015,10,20,17,00,13.50
2015,10,20,17,01,13.50
2015,10,20,17,02,13.60
2015,10,20,17,03,13.60
2015,10,20,17,04,13.60
2015,10,20,17,05,13.60
2015,10,20,17,06,13.70
2015,10,20,17,07,13.70
2015,10,20,17,08,13.70
2015,10,20,17,09,13.70
2015,10,20,17,10,13.60
2015,10,20,17,11,13.60
2015,10,20,17,12,13.60
2015,10,20,17,13,13.60
2015,10,20,17,14,13.60
2015,10,20,17,15,13.50
2015,10,20,17,16,13.50
2015,10,20,17,17,13.40
2015,10,20,17,18,13.40
2015,10,20,17,19,13.40
2015,10,20,17,20,13.40
2015,10,20,17,21,13.30
2015,10,20,17,22,13.30
2015,10,20,17,23,13.30
2015,10,20,17,24,13.30
2015,10,20,17,25,13.30
2015,10,20,17,26,13.30
2015,10,20,17,27,13.30
2015,10,20,17,28,13.20
2015,10,20,17,29,13.20
2015,10,20,17,30,13.20
2015,10,20,17,31,13.20
2015,10,20,17,32,13.20
2015,10,20,17,33,13.10
2015,10,20,17,34,13.10
2015,10,20,17,35,13.10
2015,10,20,17,36,13.00
2015,10,20,17,37,13.00
2015,10,20,17,38,12.90
2015,10,20,17,39,12.90
2015,10,20,17,40,12.90
2015,10,20,17,41,12.80
2015,10,20,17,42,12.80
2015,10,20,17,43,12.70
2015,10,20,17,44,12.70